TimeCDT,TemperatureF,Dew PointF,Humidity,Sea Level PressureIn,VisibilityMPH,Wind Direction,Wind SpeedMPH,Gust SpeedMPH,PrecipitationIn,Events,Conditions,WindDirDegrees,DateUTC
12:52 AM,62.1,59.0,90,29.78,10.0,South,13.8,-,N/A,,Overcast,180,2013-10-31 05:52:00
1:52 AM,62.1,59.0,90,29.74,10.0,South,16.1,-,N/A,,Overcast,170,2013-10-31 06:52:00
2:52 AM,62.1,59.0,90,29.72,10.0,South,12.7,-,0.00,Rain,Light Rain,170,2013-10-31 07:52:00
3:52 AM,62.1,59.0,90,29.69,10.0,South,13.8,-,0.00,Rain,Light Rain,170,2013-10-31 08:52:00
3:59 AM,62.1,59.0,90,29.70,10.0,South,10.4,-,0.00,Rain,Light Rain,170,2013-10-31 08:59:00
4:38 AM,62.1,60.1,93,29.68,10.0,South,12.7,-,0.00,,Overcast,170,2013-10-31 09:38:00
4:52 AM,62.1,60.1,93,29.66,10.0,South,10.4,-,0.00,,Overcast,170,2013-10-31 09:52:00
5:41 AM,62.1,60.1,93,29.65,10.0,SSE,11.5,-,0.00,Rain,Light Rain,160,2013-10-31 10:41:00
5:52 AM,62.1,60.1,93,29.63,10.0,South,9.2,-,0.01,Rain,Light Rain,180,2013-10-31 10:52:00
6:18 AM,62.1,60.1,93,29.63,10.0,SSE,13.8,-,0.00,,Overcast,160,2013-10-31 11:18:00
6:31 AM,62.1,60.1,93,29.61,10.0,SSE,11.5,-,0.00,Rain,Light Rain,160,2013-10-31 11:31:00
6:38 AM,62.1,60.1,93,29.60,10.0,SSE,12.7,-,0.00,Rain,Light Rain,150,2013-10-31 11:38:00
6:52 AM,62.1,60.1,93,29.59,10.0,SSE,12.7,-,0.00,,Overcast,160,2013-10-31 11:52:00
7:32 AM,63.0,61.0,93,29.61,10.0,South,10.4,-,0.00,Rain,Light Rain,170,2013-10-31 12:32:00
7:52 AM,63.0,61.0,93,29.58,7.0,South,11.5,-,0.02,Rain,Rain,190,2013-10-31 12:52:00
8:25 AM,63.0,61.0,93,29.59,10.0,South,12.7,-,0.03,Rain,Light Rain,170,2013-10-31 13:25:00
8:52 AM,63.0,61.0,93,29.57,10.0,South,13.8,-,0.04,Rain,Light Rain,180,2013-10-31 13:52:00
9:09 AM,63.0,61.0,93,29.59,10.0,South,15.0,-,0.00,Rain,Light Rain,180,2013-10-31 14:09:00
9:34 AM,63.0,61.0,93,29.60,3.0,SSW,11.5,-,0.03,Rain,Heavy Rain,200,2013-10-31 14:34:00
9:52 AM,63.0,61.0,93,29.57,9.0,SSW,12.7,-,0.05,Rain,Light Rain,200,2013-10-31 14:52:00
9:57 AM,63.0,62.1,97,29.59,10.0,SSW,9.2,-,0.00,Rain,Light Rain,200,2013-10-31 14:57:00
10:21 AM,60.1,57.0,90,29.59,3.0,NNW,4.6,-,0.01,Rain,Heavy Rain,340,2013-10-31 15:21:00
10:23 AM,59.0,57.0,93,29.59,2.5,NW,6.9,-,0.02,Rain,Heavy Rain,320,2013-10-31 15:23:00
10:30 AM,57.9,55.9,93,29.59,2.0,NNW,9.2,-,0.07,Rain,Rain,340,2013-10-31 15:30:00
10:38 AM,57.9,55.9,93,29.58,7.0,North,6.9,-,0.08,Rain,Light Rain,350,2013-10-31 15:38:00
10:45 AM,57.0,55.9,96,29.58,1.8,North,3.5,-,0.12,Rain,Heavy Rain,10,2013-10-31 15:45:00
10:52 AM,57.0,55.9,96,29.56,1.5,North,5.8,-,0.19,Rain,Light Rain,10,2013-10-31 15:52:00
10:55 AM,57.9,55.9,93,29.58,3.0,NNE,5.8,-,0.00,Rain,Light Rain,30,2013-10-31 15:55:00
11:52 AM,60.1,57.0,90,29.52,10.0,Calm,Calm,-,0.00,Rain,Light Rain,0,2013-10-31 16:52:00
12:43 PM,61.0,59.0,93,29.51,10.0,North,9.2,-,0.07,,Overcast,350,2013-10-31 17:43:00
12:52 PM,62.1,60.1,93,29.49,10.0,NNW,9.2,-,0.07,,Overcast,340,2013-10-31 17:52:00
1:31 PM,64.0,60.1,87,29.49,10.0,WNW,6.9,-,N/A,,Scattered Clouds,300,2013-10-31 18:31:00
1:42 PM,63.0,60.1,90,29.49,4.0,Variable,5.8,-,0.03,Rain-Thunderstorm,Heavy Thunderstorms and Rain,0,2013-10-31 18:42:00
1:52 PM,62.1,60.1,93,29.46,10.0,NNW,18.4,-,0.03,Rain-Thunderstorm,Light Thunderstorms and Rain,330,2013-10-31 18:52:00
2:04 PM,60.1,57.0,90,29.49,10.0,NW,6.9,-,0.00,Rain-Thunderstorm,Light Thunderstorms and Rain,320,2013-10-31 19:04:00
2:17 PM,60.1,57.0,90,29.49,10.0,NNW,11.5,-,0.00,Thunderstorm,Thunderstorm,340,2013-10-31 19:17:00
2:42 PM,60.1,57.0,90,29.47,10.0,NNW,13.8,-,0.00,,Mostly Cloudy,330,2013-10-31 19:42:00
2:52 PM,60.1,57.0,90,29.46,10.0,NW,15.0,-,0.00,,Mostly Cloudy,320,2013-10-31 19:52:00
3:09 PM,60.1,57.0,90,29.49,10.0,NW,16.1,-,N/A,,Mostly Cloudy,320,2013-10-31 20:09:00
3:18 PM,61.0,57.0,87,29.50,10.0,NW,12.7,-,N/A,,Overcast,320,2013-10-31 20:18:00
3:52 PM,60.1,55.0,83,29.49,10.0,NW,10.4,-,N/A,,Mostly Cloudy,310,2013-10-31 20:52:00
4:28 PM,57.0,53.1,87,29.55,10.0,NW,13.8,25.3,0.00,,Mostly Cloudy,310,2013-10-31 21:28:00
4:38 PM,55.9,53.1,90,29.57,1.8,NW,15.0,24.2,0.07,Rain,Heavy Rain,310,2013-10-31 21:38:00
4:44 PM,55.0,53.1,93,29.56,2.0,WNW,13.8,27.6,0.10,Rain,Heavy Rain,300,2013-10-31 21:44:00
4:48 PM,55.4,53.6,94,29.56,4.0,NW,15.0,27.6,0.11,Rain,Light Rain,310,2013-10-31 21:48:00
4:52 PM,55.9,53.1,90,29.56,8.0,NW,11.5,27.6,0.11,Rain,Light Rain,310,2013-10-31 21:52:00
4:59 PM,55.0,53.1,93,29.58,10.0,NW,13.8,-,0.00,,Overcast,320,2013-10-31 21:59:00
5:34 PM,54.0,51.1,90,29.61,10.0,NW,10.4,-,0.00,,Overcast,310,2013-10-31 22:34:00
5:52 PM,54.0,51.1,90,29.61,10.0,WNW,10.4,19.6,0.00,,Mostly Cloudy,300,2013-10-31 22:52:00
6:08 PM,54.0,51.1,90,29.63,10.0,WNW,11.5,18.4,N/A,,Mostly Cloudy,290,2013-10-31 23:08:00
6:15 PM,54.0,50.0,86,29.63,10.0,WNW,11.5,-,N/A,,Mostly Cloudy,290,2013-10-31 23:15:00
6:52 PM,52.0,48.9,89,29.66,10.0,West,12.7,-,N/A,,Mostly Cloudy,280,2013-10-31 23:52:00
7:04 PM,51.1,48.0,89,29.66,10.0,West,10.4,-,N/A,,Partly Cloudy,280,2013-11-01 00:04:00
7:23 PM,51.1,48.0,89,29.68,10.0,West,9.2,-,N/A,,Mostly Cloudy,260,2013-11-01 00:23:00
7:37 PM,51.1,48.0,89,29.68,10.0,West,6.9,-,N/A,,Mostly Cloudy,270,2013-11-01 00:37:00
7:49 PM,51.8,48.2,88,29.69,10.0,WSW,8.1,-,N/A,,Scattered Clouds,250,2013-11-01 00:49:00
7:52 PM,50.0,48.0,93,29.68,10.0,WSW,6.9,-,N/A,,Partly Cloudy,250,2013-11-01 00:52:00
8:52 PM,48.0,46.0,93,29.68,10.0,SSW,5.8,-,N/A,,Clear,210,2013-11-01 01:52:00
9:52 PM,48.9,46.9,93,29.68,10.0,SW,6.9,-,N/A,,Clear,220,2013-11-01 02:52:00
10:52 PM,50.0,46.9,89,29.71,10.0,SW,11.5,-,N/A,,Clear,220,2013-11-01 03:52:00
11:52 PM,50.0,46.0,86,29.72,10.0,WSW,11.5,-,N/A,,Clear,240,2013-11-01 04:52:00